Find Starlink 4032

NORAD ID: 52688 Int'l Des: 2022-053 Owner: SPXS Country: US Constellation: starlink operational
LEOCIRCULAR

Live Position

Loading 3D Globe...

About Starlink 4032

Description loading...

Upcoming Passes

Passes for default location (London). Set your location on the main map for personalized predictions.

Altitude History

Loading altitude history...

Two-Line Element Set

1 52688U 22053AJ 26129.99364150 -.00000057 00000-0 14502-4 0 9997
2 52688 53.2166 228.8000 0001110 88.4142 271.6978 15.08837203220375
Epoch: May 9, 2026 • Age: 9 hours

Current Status

Altitude 558.3 km
Velocity 7.58 km/s
Sub-Earth Point -51.30°S, 155.06°E
Launch Date May 18, 2022
Age 3.9 years
Type internet

Technical Details

Classification Payload
Mass 297.00 kg
Dry Mass 275.00 kg
Total Mass 297.00 kg
Length 0.20 m
Diameter 2.80 m
Span 9.00 m
Shape Box + pan
Manufacturer SPXS
Bus Type Starlink
Phase Status In Orbit
Owner/State SPXS/US

Most Searched